Weather Roundup
Issued by NWS Chicago, IL

Home | Current Version | Previous Version | Graphics & Text | Print | Product List | Glossary On
Versions: 1 2 3 4 5 6 7 8 9 10 11 12 13 14 15 16 17 18 19 20 21 22 23 24 25 26 27 28 29 30 31 32 33 34 35 36 37 38 39 40 41 42 43 44 45 46 47 48 49 50
000
NZUS59 KLOT 302102
HRRLOT

CHICAGO AREA WEATHER ROUNDUP
NATIONAL WEATHER SERVICE CHICAGO/ROMEOVILLE IL
400 PM CDT SAT MAY 30 2015

NOTE: "FAIR" INDICATES FEW OR NO CLOUDS BELOW 12,000 FEET WITH NO
SIGNIFICANT WEATHER AND/OR OBSTRUCTIONS TO VISIBILITY.

* THESE STATIONS ARE NOT UNDER NWS QUALITY CONTROL. THEY ALSO MAY NOT
  REPORT WEATHER SUCH AS PRECIPITATION OR FOG.

ILZ005-006-012>014-019>023-302200-
NORTHEAST ILLINOIS

CITY           SKY/WX    TMP DP  RH WIND       PRES   REMARKS
OHARE          RAIN      48  46  93 N22G31    30.06R
MIDWAY         LGT RAIN  51  48  89 N23G35    30.04R FOG
AURORA         LGT RAIN  53  49  86 NE22G28   30.04R FOG
WAUKEGAN       LGT RAIN  46  45  96 N17G32    30.07R
DUPAGE AIRPORT RAIN      51  49  92 NE18G25   30.05R FOG
WHEELING       LGT RAIN  48  46  93 N16G29    30.09R FOG
NORTHERLY IS     N/A     48  46  93 N25         N/A
$$

WIZ051-052-058>065-066-070>072-302200-
SOUTHEAST WISCONSIN

CITY           SKY/WX    TMP DP  RH WIND       PRES   REMARKS
MILWAUKEE      LGT RAIN  46  43  89 N21G33    30.13R
KENOSHA*       CLOUDY    48  45  89 N18G31    30.10R
RACINE*        LGT RAIN  46  43  89 N25G37    30.13R
WAUKESHA       CLOUDY    46  45  93 NE12G23   30.14S
$$

INZ001>003-010>013-019-020-302200-
NORTHWEST INDIANA

CITY           SKY/WX    TMP DP  RH WIND       PRES   REMARKS
GARY*          NOT AVBL
MICHIGAN CITY* NOT AVBL
RENSSELAER*    NOT AVBL
VALPARAISO     LGT RAIN  50  48  93 N10G17    30.00R FOG
$$

LMZ740>746-302200-
SOUTHERN LAKE MICHIGAN

STATION/POSITION TIME  SKY/WX   TEMP WIND        PRES    VSBY
                                AIR  DIR/SP/G
                 (UTC)          (F)  (DEG/KT/KT) (MB)    (MI)
HARRISON CRIB    2000            47  350/ 30/ 35   N/A
BURNHAM HARBOR   2100            48  360/ 17/ 25   N/A
CALUMET HARBOR   2000            48  340/ 20/ 26   N/A
BURNS HARBOR     2000            47   10/ 12/ 14 1017.3S
MICHIGAN CITY    2000            46  360/ 12/ 14   N/A
$$

ABBREVIATIONS USED IN REMARKS
   TC - TEMPERATURE IN CELSIUS
  WCI - WIND CHILL INDEX
   HX - HEAT INDEX
  VSB - VISIBILITY
$$


USA.gov is the U.S. government's official web portal to all federal, state and local government web resources and services.